Flag for Romania Weather past 2 weeks in Cluj-Napoca, Romania

50 °F

Passing clouds.

Feels Like: 44 °F
Forecast: 41 / 50 °F
Wind: 18 mph from West

Location: Cluj Airport-Napoca

Current Time: Nov 30, 2015 at 6:22:39 PM

Latest Report: Nov 30, 2015 at 5:00 PM

Visibility: N/A

Pressure: 29.98 "Hg

Humidity: 67%

Dew point: 39 °F

Location of Cluj-NapocaLocation

Historic Weather in Cluj-Napoca — Graph


Cluj-Napoca temperature yesterday

Maximum temperature yesterday: 41 °F (at 3:00 PM)
Minimum temperature yesterday: 34 °F (at 7:30 PM)
Average temperature yesterday: 37 °F

Past Weeks' High & Low Weather Summary

High63 °F (Nov 19, 1:00 PM)100% (Nov 15, 10:30 PM)30.30 "Hg (Nov 15, 10:30 PM)
Low32 °F (Nov 26, 9:00 AM)42% (Nov 19, 1:00 PM)29.18 "Hg (Nov 22, 1:00 AM)
Average43 °F89%29.89 "Hg
* Reported Nov 15 5:00 PM — Nov 30 5:00 PM, Cluj-Napoca, Weather by CustomWeather, © 2015

Note: Actual official high and low records may vary slightly from our data, if they occured in-between our weather recording intervals... More about our weather records


Cluj-Napoca weather history for previous 24 hours

Time TempWeatherWind HumidityBarometerVisibility
5:00 PM
Mon, Nov 30
50 °FPassing clouds.18 mph67%29.98 "HgN/A
4:30 PM50 °FOvercast.21 mph67%29.98 "HgN/A
4:00 PM50 °FPartly sunny.21 mph67%29.98 "HgN/A
3:30 PM50 °FPartly sunny.22 mph67%29.98 "HgN/A
3:00 PM50 °FPartly sunny.16 mph71%29.98 "HgN/A
2:30 PM50 °FLight rain. Partly sunny.22 mph71%29.98 "HgN/A
2:00 PM46 °FPartly sunny.3 mph87%29.98 "HgN/A
1:30 PM45 °FOvercast.5 mph93%29.98 "HgN/A
1:00 PM43 °FOvercast.3 mph100%30.01 "HgN/A
12:30 PM41 °FLight rain. Overcast.3 mph100%30.01 "HgN/A
12:00 PM39 °FLight rain. Overcast.2 mph100%30.01 "Hg5 mi
11:30 AM39 °FLight rain. Overcast.No wind100%30.01 "HgN/A
11:00 AM39 °FPartly sunny.No wind100%30.01 "HgN/A
10:30 AM39 °FLight rain. Mostly cloudy.1 mph93%30.01 "HgN/A
10:00 AM37 °FLight rain. Overcast.No wind100%30.01 "HgN/A
9:30 AM37 °FLight rain. Overcast.1 mph93%30.01 "Hg5 mi
9:00 AM36 °FLight rain. Overcast.No wind100%30.04 "Hg5 mi
8:30 AM36 °FLight rain. Broken clouds.3 mph100%30.04 "Hg5 mi
8:00 AM36 °FLight rain. Mostly cloudy.1 mph100%30.04 "Hg5 mi
7:30 AM36 °FLight rain. Mostly cloudy.3 mph100%30.04 "Hg4 mi
7:00 AM36 °FLight rain. Overcast.1 mph100%30.04 "Hg5 mi
6:30 AM36 °FLight rain. Overcast.1 mph100%30.04 "HgN/A
5:30 AM36 °FOvercast.3 mph100%30.04 "HgN/A
5:00 AM36 °FOvercast.3 mph100%30.04 "HgN/A
4:00 AM36 °FLight rain. Passing clouds.5 mph100%30.04 "Hg5 mi
3:00 AM36 °FPassing clouds.5 mph100%30.07 "Hg5 mi
2:00 AM36 °FPassing clouds.3 mph100%30.07 "Hg5 mi
1:00 AM34 °FLight rain. Passing clouds.No wind100%30.09 "Hg4 mi
12:00 AM34 °FLight rain. Passing clouds.No wind100%30.09 "Hg4 mi
11:30 PM
Sun, Nov 29
34 °FLight rain. Passing clouds.2 mph100%30.12 "Hg4 mi
11:00 PM34 °FLight snow. Passing clouds.3 mph100%30.12 "Hg4 mi
10:30 PM34 °FLight snow. Passing clouds.3 mph100%30.12 "Hg5 mi
10:00 PM34 °FLight rain. Passing clouds.3 mph100%30.12 "HgN/A
9:30 PM34 °FPassing clouds.5 mph100%30.12 "HgN/A
9:00 PM34 °FPassing clouds.1 mph93%30.09 "HgN/A
8:30 PM34 °FPassing clouds.No wind93%30.09 "HgN/A
8:00 PM34 °FClear.3 mph93%30.09 "Hg10 mi
7:30 PM34 °FPassing clouds.3 mph93%30.09 "HgN/A
7:00 PM36 °FPassing clouds.No wind93%30.09 "HgN/A
6:30 PM37 °FPassing clouds.6 mph81%30.09 "HgN/A
6:00 PM39 °FPassing clouds.7 mph81%30.09 "HgN/A
Weather by CustomWeather, © 2015

See weather overviewHow to use our weather pages